Location: Lafig�re
(44.4503°N, 4.0357°E)
Time: 10:29:31
(UTC+00:00)

Cosmos 2150 Rocket - Pass Details

Date: 25 January 2021
Orbit: 748 x 808 km, 74.0° (Epoch: 07 March)

Event Time Altitude Azimuth Distance (km) Brightness Sun altitude
Exits shadow 05:39:23 - 336° (NNW) 2,558 6.4 -16.0°
Reaches altitude 10° 05:39:55 10° 336° (NNW) 2,351 6.2 -15.9°
Maximum altitude 05:45:15 74° 252° (WSW) 830 4.0 -15.0°
Drops below altitude 10° 05:50:38 10° 168° (SSE) 2,370 6.9 -14.1°
Sets 05:53:03 0° 167° (SSE) 3,302 7.7 -13.7°
